N26ES KLAS-KASE

Flight info

Callsign N26ES
Flight time 1h 19m
Altitude 41000
Route GIDGT3 TUKRR SLIPY LOYYD1
Aircraft CL60/M-SBDE1E2E3FGHIJ1J4J5J7M3RWXYZ/LB1V1D1

Departure

Time 2026-03-24 16:01
Airport Harry Reid International Airport (KLAS)

Arrival

Time 2026-03-24 17:20
Airport Aspen-Pitkin County Airport (Sardy Field) (KASE)
Time Latitude Longitude Altitude Speed Heading
2026-03-24 15:28 36.08266 -115.17007 2168 ft 0 kts 89°
2026-03-24 15:51 36.08266 -115.17003 2168 ft 0 kts 87°
2026-03-24 15:51 36.08266 -115.16994 2167 ft 4 kts 87°
2026-03-24 15:51 36.08267 -115.16976 2166 ft 0 kts 88°
2026-03-24 15:52 36.08267 -115.16971 2165 ft 0 kts 88°
2026-03-24 15:52 36.08268 -115.16964 2165 ft 3 kts 88°
2026-03-24 15:53 36.08288 -115.16904 2163 ft 0 kts 44°
2026-03-24 15:53 36.08298 -115.16894 2163 ft 4 kts 47°
2026-03-24 15:53 36.08320 -115.16839 2161 ft 9 kts 60°
2026-03-24 15:53 36.08425 -115.16766 2157 ft 14 kts 24°
2026-03-24 15:54 36.08515 -115.16715 2154 ft 12 kts 25°
2026-03-24 15:54 36.08610 -115.16660 2150 ft 17 kts 25°
2026-03-24 15:54 36.08844 -115.16527 2142 ft 19 kts 25°
2026-03-24 15:55 36.08918 -115.16483 2139 ft 17 kts 25°
2026-03-24 15:55 36.09076 -115.16393 2133 ft 19 kts 25°
2026-03-24 15:55 36.09185 -115.16331 2129 ft 17 kts 25°
2026-03-24 15:55 36.09302 -115.16264 2123 ft 18 kts 25°
2026-03-24 15:56 36.09427 -115.16193 2118 ft 20 kts 25°
2026-03-24 15:56 36.09562 -115.16116 2113 ft 22 kts 25°
2026-03-24 15:56 36.09697 -115.16039 2108 ft 21 kts 24°
2026-03-24 15:56 36.09819 -115.15968 2105 ft 19 kts 24°
2026-03-24 15:57 36.09926 -115.15908 2101 ft 11 kts 28°
2026-03-24 15:57 36.09965 -115.15833 2100 ft 11 kts 69°
2026-03-24 15:57 36.09986 -115.15747 2098 ft 0 kts 93°
2026-03-24 15:59 36.09986 -115.15745 2098 ft 2 kts 97°
2026-03-24 16:00 36.09966 -115.15689 2097 ft 10 kts 115°
2026-03-24 16:00 36.09927 -115.15667 2097 ft 0 kts 205°
2026-03-24 16:00 36.09927 -115.15668 2098 ft 1 kts 205°
2026-03-24 16:00 36.09609 -115.15850 2106 ft 101 kts 205°
2026-03-24 16:01 36.08713 -115.16360 2284 ft 169 kts 204°
2026-03-24 16:01 36.07222 -115.17205 3505 ft 189 kts 205°
2026-03-24 16:01 36.06419 -115.17678 4177 ft 198 kts 205°
2026-03-24 16:01 36.05133 -115.18436 5110 ft 211 kts 206°
2026-03-24 16:02 36.03430 -115.19651 6388 ft 221 kts 222°
2026-03-24 16:02 36.02584 -115.21210 7486 ft 222 kts 246°
2026-03-24 16:02 36.02199 -115.23074 8370 ft 229 kts 262°
2026-03-24 16:02 36.02161 -115.24341 9084 ft 228 kts 272°
2026-03-24 16:03 36.03059 -115.26753 10159 ft 255 kts 319°
2026-03-24 16:03 36.04095 -115.27518 10542 ft 277 kts 339°
2026-03-24 16:03 36.06844 -115.28378 10895 ft 328 kts 347°
2026-03-24 16:03 36.08332 -115.28781 11143 ft 334 kts 347°
2026-03-24 16:04 36.11416 -115.29344 11813 ft 337 kts
2026-03-24 16:04 36.13748 -115.28882 12312 ft 343 kts 18°
2026-03-24 16:04 36.15200 -115.28077 12637 ft 346 kts 30°
2026-03-24 16:04 36.17030 -115.26161 13128 ft 349 kts 51°
2026-03-24 16:05 36.18473 -115.22559 13862 ft 363 kts 69°
2026-03-24 16:05 36.19330 -115.19636 14903 ft 365 kts 74°
2026-03-24 16:05 36.19611 -115.17590 15624 ft 366 kts 86°
2026-03-24 16:05 36.19648 -115.14428 16642 ft 368 kts 89°
2026-03-24 16:06 36.19654 -115.10179 17810 ft 376 kts 89°
2026-03-24 16:06 36.19660 -115.06945 18549 ft 384 kts 89°
2026-03-24 16:06 36.19663 -115.04745 18832 ft 388 kts 89°
2026-03-24 16:06 36.19667 -115.00281 19087 ft 388 kts 89°
2026-03-24 16:07 36.19667 -114.96999 19557 ft 381 kts 89°
2026-03-24 16:07 36.19667 -114.94833 19930 ft 381 kts 89°
2026-03-24 16:07 36.19666 -114.90382 20732 ft 390 kts 90°
2026-03-24 16:07 36.19664 -114.88180 21120 ft 395 kts 90°
2026-03-24 16:08 36.19661 -114.84763 21825 ft 400 kts 90°
2026-03-24 16:08 36.19655 -114.80128 22793 ft 406 kts 90°
2026-03-24 16:08 36.19649 -114.76621 23563 ft 410 kts 90°
2026-03-24 16:08 36.19644 -114.74301 24100 ft 411 kts 89°
2026-03-24 16:09 36.19636 -114.70778 24821 ft 415 kts 89°
2026-03-24 16:09 36.19627 -114.67214 25549 ft 418 kts 89°
2026-03-24 16:09 36.19619 -114.62408 26439 ft 423 kts 89°
2026-03-24 16:09 36.19614 -114.59972 26823 ft 426 kts 89°
2026-03-24 16:10 36.19601 -114.55082 27629 ft 431 kts 89°
2026-03-24 16:10 36.19591 -114.51341 28316 ft 433 kts 89°
2026-03-24 16:10 36.19583 -114.48910 28718 ft 434 kts 88°
2026-03-24 16:10 36.19566 -114.43916 29498 ft 437 kts 88°
2026-03-24 16:11 36.19556 -114.41388 29817 ft 440 kts 89°
2026-03-24 16:11 36.19535 -114.36359 30449 ft 444 kts 89°
2026-03-24 16:11 36.19524 -114.33781 30706 ft 448 kts 89°
2026-03-24 16:11 36.19506 -114.29945 31033 ft 454 kts 89°
2026-03-24 16:12 36.19487 -114.26012 31420 ft 458 kts 89°
2026-03-24 16:12 36.19651 -114.22089 31879 ft 458 kts 82°
2026-03-24 16:12 36.20276 -114.16914 32373 ft 462 kts 80°
2026-03-24 16:12 36.20596 -114.14295 32607 ft 463 kts 81°
2026-03-24 16:13 36.21076 -114.10334 32946 ft 466 kts 81°
2026-03-24 16:13 36.21552 -114.06388 33288 ft 467 kts 81°
2026-03-24 16:13 36.22033 -114.02387 33599 ft 470 kts 81°
2026-03-24 16:13 36.22507 -113.98413 33853 ft 473 kts 81°
2026-03-24 16:14 36.22986 -113.94397 34353 ft 470 kts 81°
2026-03-24 16:14 36.23455 -113.90434 34917 ft 467 kts 81°
2026-03-24 16:14 36.24078 -113.85147 35655 ft 462 kts 81°
2026-03-24 16:14 36.24379 -113.82588 36046 ft 459 kts 81°
2026-03-24 16:15 36.24992 -113.77360 36676 ft 457 kts 81°
2026-03-24 16:15 36.25442 -113.73500 37070 ft 456 kts 81°
2026-03-24 16:15 36.25744 -113.70901 37345 ft 455 kts 82°
2026-03-24 16:15 36.26335 -113.65802 37824 ft 455 kts 82°
2026-03-24 16:16 36.26782 -113.61926 38048 ft 457 kts 82°
2026-03-24 16:16 36.27084 -113.59302 38216 ft 457 kts 82°
2026-03-24 16:16 36.27676 -113.54145 38791 ft 453 kts 82°
2026-03-24 16:16 36.28118 -113.50281 39170 ft 451 kts 82°
2026-03-24 16:17 36.28551 -113.46487 39571 ft 448 kts 82°
2026-03-24 16:17 36.28843 -113.43912 39911 ft 443 kts 82°
2026-03-24 16:17 36.29264 -113.40205 40424 ft 436 kts 82°
2026-03-24 16:17 36.29685 -113.36479 40722 ft 434 kts 82°
2026-03-24 16:18 36.30110 -113.32703 40911 ft 434 kts 82°
2026-03-24 16:18 36.30662 -113.27786 41022 ft 437 kts 82°
2026-03-24 16:18 36.30949 -113.25343 41152 ft 436 kts 81°
2026-03-24 16:18 36.31977 -113.20478 41354 ft 437 kts 69°
2026-03-24 16:19 36.33136 -113.17016 41341 ft 439 kts 66°
2026-03-24 16:19 36.35184 -113.11250 41363 ft 439 kts 66°
2026-03-24 16:20 36.38031 -113.03192 41365 ft 436 kts 66°
2026-03-24 16:20 36.40449 -112.96324 41358 ft 435 kts 66°
2026-03-24 16:21 36.42470 -112.90572 41343 ft 436 kts 66°
2026-03-24 16:21 36.44889 -112.83664 41358 ft 436 kts 66°
2026-03-24 16:22 36.47306 -112.76744 41355 ft 438 kts 66°
2026-03-24 16:22 36.49749 -112.69732 41353 ft 445 kts 66°
2026-03-24 16:23 36.52212 -112.62648 41350 ft 452 kts 65°
2026-03-24 16:23 36.54719 -112.55416 41382 ft 456 kts 66°
2026-03-24 16:24 36.57241 -112.48122 41371 ft 462 kts 66°
2026-03-24 16:24 36.60221 -112.39481 41392 ft 466 kts 65°
2026-03-24 16:25 36.62808 -112.31960 41430 ft 468 kts 66°
2026-03-24 16:25 36.64948 -112.25723 41434 ft 471 kts 66°
2026-03-24 16:26 36.67949 -112.16952 41394 ft 476 kts 66°
2026-03-24 16:26 36.70118 -112.10599 41373 ft 478 kts 66°
2026-03-24 16:27 36.73153 -112.01683 41334 ft 477 kts 65°
2026-03-24 16:27 36.75729 -111.94096 41332 ft 476 kts 65°
2026-03-24 16:28 36.77879 -111.87748 41293 ft 476 kts 65°
2026-03-24 16:28 36.80449 -111.80142 41299 ft 475 kts 65°
2026-03-24 16:29 36.83025 -111.72499 41309 ft 476 kts 65°
2026-03-24 16:29 36.85648 -111.64887 41294 ft 475 kts 61°
2026-03-24 16:30 36.89398 -111.56437 41188 ft 475 kts 58°
2026-03-24 16:30 36.92091 -111.50424 41199 ft 476 kts 58°
2026-03-24 16:31 36.95852 -111.42001 41198 ft 476 kts 58°
2026-03-24 16:31 36.98560 -111.35919 41187 ft 477 kts 58°
2026-03-24 16:32 37.01784 -111.28660 41225 ft 476 kts 59°
2026-03-24 16:32 37.05019 -111.21354 41240 ft 477 kts 59°
2026-03-24 16:33 37.08237 -111.14069 41286 ft 477 kts 58°
2026-03-24 16:33 37.11444 -111.06793 41295 ft 478 kts 58°
2026-03-24 16:34 37.14661 -110.99475 41295 ft 479 kts 58°
2026-03-24 16:34 37.17874 -110.92149 41307 ft 478 kts 58°
2026-03-24 16:35 37.21075 -110.84830 41312 ft 477 kts 58°
2026-03-24 16:35 37.24263 -110.77528 41294 ft 477 kts 58°
2026-03-24 16:36 37.27964 -110.69029 41283 ft 477 kts 58°
2026-03-24 16:36 37.30620 -110.62915 41276 ft 477 kts 58°
2026-03-24 16:37 37.33792 -110.55598 41285 ft 477 kts 58°
2026-03-24 16:37 37.36972 -110.48247 41292 ft 477 kts 58°
2026-03-24 16:38 37.40648 -110.39726 41309 ft 478 kts 58°
2026-03-24 16:38 37.43285 -110.33601 41322 ft 477 kts 58°
2026-03-24 16:39 37.46461 -110.26206 41337 ft 477 kts 58°
2026-03-24 16:39 37.49587 -110.18913 41329 ft 477 kts 58°
2026-03-24 16:40 37.52762 -110.11488 41334 ft 478 kts 58°
2026-03-24 16:40 37.55910 -110.04109 41353 ft 478 kts 58°
2026-03-24 16:41 37.59076 -109.96671 41358 ft 478 kts 58°
2026-03-24 16:41 37.62188 -109.89342 41362 ft 478 kts 58°
2026-03-24 16:42 37.65320 -109.81949 41362 ft 477 kts 58°
2026-03-24 16:42 37.68451 -109.74542 41371 ft 476 kts 58°
2026-03-24 16:43 37.73113 -109.63480 41408 ft 476 kts 57°
2026-03-24 16:43 37.76220 -109.56087 41346 ft 479 kts 57°
2026-03-24 16:44 37.79768 -109.49028 41296 ft 475 kts 46°
2026-03-24 16:44 37.84434 -109.43299 41382 ft 461 kts 32°
2026-03-24 16:45 37.89779 -109.38930 41371 ft 459 kts 25°
2026-03-24 16:45 37.95288 -109.34747 41367 ft 461 kts 26°
2026-03-24 16:46 38.00785 -109.30559 41363 ft 460 kts 26°
2026-03-24 16:46 38.06274 -109.26369 41372 ft 460 kts 26°
2026-03-24 16:47 38.11768 -109.22109 41379 ft 462 kts 28°
2026-03-24 16:47 38.17132 -109.17581 41377 ft 463 kts 28°
2026-03-24 16:48 38.22532 -109.13009 41358 ft 463 kts 28°
2026-03-24 16:48 38.27876 -109.08476 41351 ft 462 kts 28°
2026-03-24 16:49 38.33266 -109.03898 41350 ft 461 kts 28°
2026-03-24 16:49 38.38607 -108.99352 41383 ft 460 kts 28°
2026-03-24 16:50 38.43980 -108.94772 41337 ft 461 kts 28°
2026-03-24 16:50 38.49319 -108.90212 41344 ft 461 kts 28°
2026-03-24 16:51 38.54657 -108.85644 41364 ft 461 kts 28°
2026-03-24 16:52 38.62684 -108.78762 41322 ft 463 kts 27°
2026-03-24 16:52 38.65382 -108.76448 40760 ft 471 kts 28°
2026-03-24 16:52 38.68095 -108.74115 40171 ft 467 kts 28°
2026-03-24 16:52 38.70807 -108.71777 39569 ft 464 kts 27°
2026-03-24 16:53 38.73456 -108.69439 38874 ft 466 kts 30°
2026-03-24 16:53 38.75966 -108.66791 38247 ft 470 kts 36°
2026-03-24 16:53 38.78253 -108.63805 37625 ft 476 kts 42°
2026-03-24 16:53 38.80338 -108.60403 36969 ft 482 kts 49°
2026-03-24 16:54 38.82079 -108.56763 36331 ft 487 kts 56°
2026-03-24 16:54 38.83506 -108.52748 35679 ft 493 kts 63°
2026-03-24 16:54 38.84712 -108.48682 34980 ft 494 kts 63°
2026-03-24 16:54 38.85932 -108.44547 34262 ft 495 kts 63°
2026-03-24 16:55 38.87555 -108.39038 33446 ft 495 kts 63°
2026-03-24 16:55 38.88356 -108.36317 32921 ft 494 kts 63°
2026-03-24 16:55 38.89549 -108.32245 32516 ft 487 kts 64°
2026-03-24 16:55 38.90754 -108.28134 31785 ft 482 kts 64°
2026-03-24 16:56 38.91920 -108.24143 31058 ft 475 kts 64°
2026-03-24 16:56 38.93048 -108.20269 30508 ft 467 kts 63°
2026-03-24 16:56 38.94185 -108.16371 29802 ft 461 kts 64°
2026-03-24 16:56 38.95287 -108.12578 29355 ft 451 kts 63°
2026-03-24 16:57 38.96372 -108.08837 28964 ft 439 kts 63°
2026-03-24 16:57 38.97415 -108.05241 28412 ft 434 kts 63°
2026-03-24 16:57 38.98471 -108.01602 27988 ft 433 kts 63°
2026-03-24 16:57 38.99521 -107.97979 27665 ft 434 kts 63°
2026-03-24 16:58 39.00570 -107.94360 27135 ft 435 kts 64°
2026-03-24 16:58 39.01619 -107.90725 26742 ft 431 kts 64°
2026-03-24 16:58 39.02655 -107.87130 26265 ft 430 kts 64°
2026-03-24 16:58 39.03684 -107.83559 25839 ft 427 kts 64°
2026-03-24 16:59 39.04712 -107.79981 25424 ft 425 kts 64°
2026-03-24 16:59 39.05737 -107.76411 24935 ft 425 kts 64°
2026-03-24 16:59 39.06757 -107.72854 24558 ft 421 kts 64°
2026-03-24 16:59 39.07766 -107.69330 24071 ft 420 kts 64°
2026-03-24 17:00 39.08762 -107.65845 23673 ft 417 kts 64°
2026-03-24 17:00 39.10101 -107.61153 23104 ft 414 kts 64°
2026-03-24 17:00 39.10770 -107.58836 22796 ft 414 kts 64°
2026-03-24 17:00 39.11785 -107.55374 22343 ft 412 kts 63°
2026-03-24 17:01 39.12794 -107.51929 21912 ft 411 kts 63°
2026-03-24 17:01 39.13794 -107.48508 21480 ft 408 kts 63°
2026-03-24 17:01 39.14784 -107.45116 21128 ft 404 kts 63°
2026-03-24 17:01 39.15728 -107.41697 20724 ft 406 kts 69°
2026-03-24 17:02 39.16117 -107.38056 20606 ft 412 kts 84°
2026-03-24 17:02 39.16084 -107.34374 20568 ft 414 kts 87°
2026-03-24 17:02 39.16036 -107.30630 20287 ft 414 kts 87°
2026-03-24 17:02 39.15989 -107.26931 19827 ft 406 kts 87°
2026-03-24 17:03 39.15939 -107.23360 19552 ft 393 kts 87°
2026-03-24 17:03 39.15891 -107.19931 19348 ft 380 kts 87°
2026-03-24 17:03 39.15842 -107.16535 19037 ft 372 kts 86°
2026-03-24 17:03 39.15794 -107.13308 18948 ft 356 kts 87°
2026-03-24 17:04 39.15748 -107.10126 18682 ft 358 kts 86°
2026-03-24 17:04 39.15702 -107.06902 18311 ft 355 kts 86°
2026-03-24 17:04 39.15653 -107.03806 18227 ft 342 kts 86°
2026-03-24 17:04 39.15605 -107.00809 18129 ft 329 kts 86°
2026-03-24 17:05 39.15557 -106.97879 17941 ft 331 kts 86°
2026-03-24 17:05 39.15513 -106.94920 17664 ft 327 kts 86°
2026-03-24 17:05 39.15465 -106.92036 17555 ft 325 kts 86°
2026-03-24 17:05 39.15590 -106.89108 17360 ft 318 kts 71°
2026-03-24 17:06 39.16397 -106.86578 17192 ft 303 kts 49°
2026-03-24 17:06 39.17687 -106.84473 16992 ft 296 kts 41°
2026-03-24 17:06 39.19019 -106.82466 16815 ft 295 kts 41°
2026-03-24 17:06 39.20345 -106.80454 16637 ft 295 kts 41°
2026-03-24 17:07 39.21661 -106.78459 16463 ft 294 kts 41°
2026-03-24 17:07 39.22986 -106.76447 16283 ft 293 kts 42°
2026-03-24 17:07 39.24319 -106.74425 15933 ft 296 kts 42°
2026-03-24 17:07 39.25634 -106.72425 15695 ft 291 kts 42°
2026-03-24 17:08 39.26939 -106.70434 15494 ft 285 kts 42°
2026-03-24 17:08 39.28213 -106.68494 15314 ft 278 kts 41°
2026-03-24 17:08 39.29634 -106.66991 15139 ft 258 kts 18°
2026-03-24 17:08 39.31311 -106.66416 14940 ft 241 kts 355°
2026-03-24 17:09 39.32920 -106.66670 14694 ft 231 kts 338°
2026-03-24 17:09 39.34421 -106.67391 14474 ft 226 kts 334°
2026-03-24 17:09 39.35871 -106.68124 14317 ft 221 kts 334°
2026-03-24 17:09 39.37289 -106.68837 14114 ft 218 kts 334°
2026-03-24 17:10 39.38706 -106.69505 13936 ft 215 kts 336°
2026-03-24 17:10 39.40125 -106.70053 13823 ft 208 kts 338°
2026-03-24 17:10 39.41478 -106.70570 13816 ft 196 kts 337°
2026-03-24 17:10 39.42835 -106.71098 13858 ft 214 kts 338°
2026-03-24 17:11 39.44309 -106.71678 13722 ft 226 kts 338°
2026-03-24 17:11 39.45815 -106.72261 13677 ft 224 kts 338°
2026-03-24 17:11 39.47191 -106.73117 13658 ft 219 kts 315°
2026-03-24 17:11 39.48144 -106.74659 13626 ft 218 kts 303°
2026-03-24 17:12 39.48999 -106.76255 13627 ft 218 kts 304°
2026-03-24 17:12 39.49882 -106.77890 13626 ft 221 kts 304°
2026-03-24 17:12 39.50753 -106.79501 13626 ft 220 kts 303°
2026-03-24 17:12 39.51465 -106.81269 13619 ft 220 kts 283°
2026-03-24 17:13 39.51639 -106.83240 13622 ft 221 kts 276°
2026-03-24 17:13 39.51764 -106.85224 13628 ft 222 kts 277°
2026-03-24 17:13 39.51893 -106.87193 13615 ft 220 kts 277°
2026-03-24 17:13 39.52014 -106.89175 13611 ft 222 kts 274°
2026-03-24 17:14 39.51923 -106.91181 13431 ft 227 kts 263°
2026-03-24 17:14 39.51472 -106.93137 13321 ft 229 kts 251°
2026-03-24 17:14 39.50668 -106.94959 13145 ft 236 kts 238°
2026-03-24 17:14 39.49524 -106.96503 13001 ft 238 kts 224°
2026-03-24 17:15 39.48124 -106.97650 12832 ft 244 kts 210°
2026-03-24 17:15 39.46488 -106.98347 12681 ft 250 kts 194°
2026-03-24 17:15 39.44726 -106.98486 12511 ft 254 kts 179°
2026-03-24 17:15 39.42973 -106.98085 12343 ft 256 kts 170°
2026-03-24 17:16 39.41240 -106.97569 12132 ft 257 kts 169°
2026-03-24 17:16 39.39492 -106.97059 11800 ft 260 kts 169°
2026-03-24 17:16 39.37731 -106.96562 11468 ft 260 kts 169°
2026-03-24 17:16 39.35970 -106.96059 11072 ft 255 kts 169°
2026-03-24 17:17 39.34278 -106.95569 10689 ft 240 kts 168°
2026-03-24 17:17 39.32706 -106.95113 10380 ft 227 kts 168°
2026-03-24 17:17 39.31267 -106.94440 9910 ft 218 kts 148°
2026-03-24 17:17 39.30191 -106.93214 9653 ft 193 kts 127°
2026-03-24 17:18 39.29559 -106.91812 9365 ft 169 kts 111°
2026-03-24 17:18 39.28997 -106.90601 9085 ft 153 kts 130°
2026-03-24 17:18 39.28171 -106.89713 8829 ft 152 kts 148°
2026-03-24 17:18 39.27220 -106.89175 8673 ft 150 kts 161°
2026-03-24 17:19 39.26225 -106.88714 8441 ft 151 kts 160°
2026-03-24 17:19 39.25262 -106.88266 8223 ft 148 kts 160°
2026-03-24 17:19 39.24277 -106.87802 7978 ft 149 kts 160°
2026-03-24 17:19 39.23317 -106.87360 7753 ft 145 kts 159°
2026-03-24 17:20 39.22422 -106.86935 7742 ft 123 kts 159°
2026-03-24 17:20 39.21815 -106.86649 7786 ft 56 kts 159°
2026-03-24 17:20 39.21555 -106.86524 7804 ft 22 kts 159°
2026-03-24 17:20 39.21475 -106.86456 7809 ft 10 kts 85°
2026-03-24 17:21 39.21516 -106.86382 7807 ft 10 kts 359°
2026-03-24 17:21 39.21555 -106.86400 7805 ft 0 kts 339°
2026-03-24 17:21 39.21556 -106.86400 7805 ft 0 kts 339°
2026-03-24 17:22 39.21567 -106.86405 7805 ft 5 kts 340°
2026-03-24 17:22 39.21635 -106.86437 7800 ft 15 kts 339°
2026-03-24 17:22 39.21736 -106.86485 7794 ft 15 kts 339°
2026-03-24 17:22 39.21856 -106.86541 7786 ft 21 kts 341°
2026-03-24 17:23 39.21994 -106.86607 7775 ft 18 kts 339°
2026-03-24 17:23 39.22082 -106.86649 7770 ft 14 kts 339°
2026-03-24 17:23 39.22166 -106.86687 7763 ft 10 kts 340°
2026-03-24 17:23 39.22237 -106.86698 7758 ft 11 kts 35°
2026-03-24 17:24 39.22231 -106.86643 7760 ft 4 kts 186°
2026-03-24 17:24 39.22216 -106.86667 7760 ft 1 kts 249°
2026-03-24 17:24 39.22214 -106.86675 7760 ft 0 kts 250°